Vorticity
7 4 9 11 4 -4 21 1 -17 38 2 -3 12 2 1 1 6 4 12 26 -3 -2 7 7 10 8 13 14 7 27 16 7 13 7 5 8 8 6 20 13 18 12 9 15
2 5 11 7 15 4 -24 0 3 18 -8 -12 27 2 0 1 8 9 6 -1 21 13 2 3 5 8 6 10 15 12 14 13 13 9 0 11 9 12 15 13 10 12 8 17
7 7 11 4 -5 4 -11 2 2 -4 -6 -3 25 27 0 -1 -2 7 10 10 15 11 6 2 4 2 6 6 2 14 14 9 10 10 9 12 15 9 3 8 11 11 11 14
10 7 9 10 -1 5 7 3 -15 14 35 37 -1 -17 12 4 7 29 16 13 7 26 0 -3 11 4 3 4 4 7 4 6 8 12 12 12 9 8 8 6 9 7 11 11
12 12 8 16 6 1 -15 -8 -7 -6 2 1 1 4 3 0 15 -8 6 22 55 44 15 -1 2 4 2 1 3 6 3 4 4 5 3 7 10 9 9 6 7 9 8 15
8 10 13 12 -3 17 4 4 -31 15 34 10 4 0 30 3 -1 5 -5 21 3 0 5 -2 10 0 1 2 1 0 3 6 3 2 3 3 2 6 11 8 8 7 6 6
10 10 14 6 9 -1 0 9 1 -2 -0 5 -6 19 11 -20 14 -1 12 8 6 -3 13 15 10 8 3 1 3 3 4 4 5 5 3 3 3 2 3 5 12 10 9 7
10 13 7 2 25 2 -10 14 4 1 4 16 -0 -4 -4 -17 14 -6 8 6 4 -2 -6 11 14 22 9 3 2 1 3 5 7 6 5 6 6 5 3 2 3 9 9 8
9 5 24 12 7 7 9 21 -3 -2 2 8 12 44 7 31 -2 -4 -14 21 15 3 0 15 7 25 18 5 2 4 6 7 6 8 11 9 10 7 6 4 4 3 3 6
20 -1 1 -22 34 2 44 -2 16 1 17 9 16 6 30 24 20 2 1 9 1 20 14 9 10 8 7 4 6 7 10 9 10 14 10 13 17 6 9 9 5 4 4 3
29 2 15 9 5 12 39 -8 14 2 -9 5 16 9 6 11 -3 1 0 1 1 19 16 6 11 7 9 10 9 8 7 5 12 7 5 14 14 15 27 23 8 5 6 5
19 3 -3 4 12 -21 2 25 9 12 8 19 10 7 29 3 -21 -9 5 23 8 10 15 5 12 5 6 9 9 5 8 9 10 12 13 9 8 10 33 29 7 6 8 8
10 13 -6 12 -7 20 -1 15 -1 7 2 -21 24 -11 -3 8 16 3 -6 -14 39 -5 33 4 2 8 7 7 5 2 11 9 3 6 4 7 8 12 8 8 11 11 10 8
25 11 2 -6 -12 57 2 -5 26 10 -6 -14 13 22 12 11 9 13 28 34 6 3 27 31 -2 3 5 8 3 7 6 8 8 2 4 2 4 6 6 5 13 13 7 5
15 2 26 -3 -8 -3 34 -3 24 -7 -14 7 -8 -18 23 4 -3 10 2 18 16 -1 7 -8 1 -1 4 3 5 5 9 4 1 3 4 4 5 1 8 5 8 8 9 9
20 36 18 2 -11 -1 60 28 5 -3 8 9 -19 8 14 25 18 55 2 13 -2 7 1 14 5 1 2 10 8 12 11 1 -1 2 -2 4 8 3 5 10 5 10 9 9
1 20 31 0 -3 9 18 -9 -5 22 7 5 -7 11 -15 9 5 37 33 3 1 14 11 5 8 8 12 10 7 12 4 5 -2 9 5 16 22 10 7 3 14 9 8 8
-2 -3 50 7 -9 9 1 36 -1 19 34 -3 -4 -3 -3 8 -3 -22 -8 25 13 9 9 6 7 8 4 8 15 -9 -5 10 11 6 12 10 30 26 16 24 5 4 6 8
1 -12 64 8 -6 20 23 -1 11 11 -1 47 -15 -2 4 4 5 36 70 -3 1 3 15 8 8 12 9 11 56 22 10 6 9 1 4 -1 27 49 37 32 45 5 -9 3
2 2 -13 25 -2 13 5 15 2 4 9 8 15 23 3 1 -31 41 -81 9 -0 -1 11 5 -1 14 13 11 18 10 12 15 1 12 2 -4 -7 1 -6 5 9 8 12 15
-2 13 -12 81 -1 7 -9 5 -1 -12 18 2 5 -24 7 -3 8 -9 8 10 -3 9 9 8 2 11 11 20 3 10 8 9 18 22 10 13 9 8 5 7 14 11 11 9
9 1 11 -30 17 -8 8 -3 -3 13 -5 7 16 -8 -7 2 -2 -2 7 1 10 17 12 4 13 3 2 11 2 8 10 13 10 7 7 8 6 10 10 10 9 9 10 8
13 5 -12 25 14 1 -10 10 -9 16 -19 106 31 44 6 1 -1 0 11 18 13 8 15 5 12 11 21 34 17 -1 10 7 6 11 8 10 12 9 6 8 6 5 7 7
0 2 9 9 18 8 -5 12 13 32 22 4 -19 -11 -21 -0 5 9 11 13 4 0 4 4 10 9 24 19 14 3 5 9 11 11 11 10 7 7 8 7 6 9 10 7
2 21 41 -2 18 6 16 14 13 -16 35 33 20 10 7 5 14 3 12 5 4 14 15 13 9 12 13 6 5 5 11 13 16 7 5 8 12 10 9 10 11 8 7 6
-3 -18 75 -9 18 16 -9 7 -12 30 27 -22 -10 7 -2 16 -4 14 5 7 8 13 13 9 8 12 13 12 12 16 18 14 10 9 3 8 10 10 14 10 4 7 6 10
Height
5911 5913 5916 5919 5922 5922 5926 5925 5928 5930 5929 5932 5931 5931 5927 5921 5922 5922 5925 5924 5921 5919 5918 5914 5909 5910 5905 5906 5906 5907 5907 5905 5902 5902 5902 5902 5904 5904 5904 5904 5902 5895 5897 5897
5908 5911 5915 5918 5917 5919 5923 5925 5923 5929 5929 5932 5933 5932 5929 5922 5920 5921 5924 5923 5921 5921 5915 5913 5910 5912 5907 5906 5909 5909 5908 5907 5906 5905 5905 5905 5903 5903 5900 5899 5900 5898 5897 5895
5905 5910 5912 5914 5915 5917 5922 5924 5925 5926 5930 5932 5933 5932 5929 5926 5919 5922 5923 5922 5921 5919 5918 5912 5912 5914 5911 5911 5910 5910 5909 5907 5907 5907 5905 5903 5902 5898 5897 5899 5897 5895 5894 5889
5900 5905 5907 5911 5914 5916 5919 5923 5922 5926 5928 5930 5930 5929 5930 5929 5926 5919 5922 5917 5918 5923 5917 5913 5914 5916 5914 5912 5910 5909 5910 5910 5909 5907 5904 5904 5903 5903 5901 5898 5896 5894 5893 5891
5898 5900 5903 5906 5911 5915 5916 5920 5919 5923 5925 5927 5929 5926 5925 5927 5929 5925 5921 5917 5909 5900 5907 5915 5920 5918 5915 5915 5913 5913 5912 5910 5908 5907 5906 5905 5904 5902 5900 5899 5897 5896 5894 5892
5893 5897 5899 5904 5908 5914 5916 5918 5918 5920 5924 5923 5920 5920 5919 5921 5923 5922 5922 5915 5907 5901 5905 5915 5919 5919 5918 5915 5913 5911 5911 5911 5909 5908 5907 5906 5905 5903 5901 5899 5898 5897 5895 5893
5888 5892 5895 5900 5904 5908 5913 5906 5915 5916 5917 5918 5918 5917 5915 5918 5918 5920 5920 5919 5912 5909 5913 5916 5916 5916 5915 5914 5912 5912 5911 5910 5909 5908 5907 5905 5903 5901 5900 5899 5897 5895 5894 5893
5884 5889 5891 5896 5901 5904 5907 5911 5915 5915 5914 5914 5915 5914 5917 5917 5916 5917 5916 5919 5917 5913 5915 5915 5913 5911 5911 5911 5911 5910 5909 5907 5906 5905 5904 5903 5902 5901 5899 5897 5896 5894 5892 5890
5880 5885 5890 5894 5897 5900 5903 5906 5913 5911 5912 5910 5911 5908 5908 5908 5907 5916 5916 5916 5915 5913 5913 5914 5911 5910 5909 5909 5909 5908 5907 5906 5904 5903 5901 5900 5900 5898 5896 5896 5894 5893 5891 5889
5878 5880 5886 5892 5895 5895 5899 5902 5905 5907 5904 5907 5909 5907 5907 5904 5906 5914 5914 5915 5913 5912 5912 5912 5910 5909 5909 5909 5908 5907 5905 5904 5902 5901 5899 5897 5895 5894 5892 5891 5891 5890 5888 5886
5876 5877 5882 5887 5889 5891 5894 5894 5900 5906 5903 5904 5905 5903 5905 5906 5910 5910 5902 5908 5911 5910 5909 5909 5910 5909 5908 5908 5907 5907 5905 5903 5901 5899 5896 5893 5890 5887 5885 5884 5885 5886 5886 5885
5873 5875 5877 5880 5887 5890 5892 5894 5899 5900 5905 5905 5903 5900 5904 5907 5905 5910 5909 5901 5906 5905 5903 5907 5909 5908 5908 5907 5907 5905 5903 5900 5898 5895 5892 5889 5886 5884 5881 5881 5882 5883 5883 5881
5868 5871 5874 5877 5881 5882 5888 5892 5896 5899 5902 5903 5902 5903 5902 5910 5905 5907 5902 5899 5889 5881 5899 5903 5905 5903 5904 5904 5903 5901 5899 5897 5894 5890 5887 5885 5884 5883 5880 5879 5879 5879 5877 5876
5863 5864 5869 5872 5875 5877 5881 5885 5888 5895 5898 5899 5899 5901 5901 5903 5905 5898 5892 5891 5895 5899 5900 5896 5901 5901 5901 5901 5899 5897 5895 5891 5889 5887 5885 5883 5880 5878 5875 5874 5874 5872 5871 5870
5856 5859 5864 5867 5868 5871 5870 5879 5882 5886 5894 5890 5891 5893 5898 5898 5898 5898 5897 5888 5882 5888 5889 5878 5891 5895 5896 5895 5893 5891 5889 5886 5885 5885 5882 5880 5878 5875 5873 5871 5868 5866 5865 5864
5851 5855 5858 5859 5864 5866 5866 5876 5877 5882 5884 5878 5886 5887 5886 5891 5891 5893 5893 5894 5880 5884 5888 5883 5890 5892 5892 5889 5888 5886 5885 5883 5883 5882 5879 5877 5874 5870 5869 5867 5865 5862 5860 5859
5844 5848 5852 5856 5859 5860 5864 5869 5873 5878 5876 5877 5880 5880 5883 5885 5889 5891 5891 5890 5887 5887 5889 5889 5887 5887 5886 5883 5881 5878 5880 5879 5877 5874 5872 5868 5864 5863 5861 5859 5857 5856 5855 5853
5841 5842 5848 5852 5853 5853 5862 5866 5869 5871 5878 5877 5874 5873 5877 5882 5885 5887 5888 5887 5887 5887 5886 5885 5884 5883 5879 5875 5870 5872 5874 5875 5873 5869 5864 5859 5854 5850 5848 5848 5847 5847 5847 5846
5832 5841 5842 5844 5849 5852 5856 5852 5861 5864 5872 5869 5866 5867 5871 5872 5874 5876 5878 5881 5880 5884 5882 5880 5880 5880 5873 5868 5861 5863 5867 5865 5866 5864 5859 5856 5851 5844 5846 5843 5838 5839 5838 5837
5830 5836 5841 5842 5842 5849 5856 5852 5857 5863 5866 5859 5862 5862 5861 5864 5863 5861 5868 5869 5876 5876 5874 5874 5873 5873 5866 5866 5863 5862 5862 5862 5860 5859 5855 5852 5847 5842 5841 5838 5834 5831 5832 5830
5821 5824 5834 5838 5839 5844 5846 5841 5853 5857 5851 5853 5855 5859 5859 5859 5861 5861 5865 5864 5871 5869 5868 5866 5865 5864 5862 5859 5854 5853 5853 5853 5852 5850 5848 5843 5839 5837 5835 5832 5827 5827 5825 5822
5819 5821 5828 5832 5834 5837 5842 5847 5848 5847 5844 5851 5849 5852 5858 5858 5859 5858 5858 5862 5862 5862 5860 5859 5859 5855 5855 5852 5850 5848 5846 5846 5844 5842 5838 5835 5833 5830 5827 5824 5823 5820 5818 5815
5818 5816 5817 5823 5829 5834 5836 5840 5843 5846 5843 5811 5844 5851 5855 5859 5859 5860 5859 5858 5857 5856 5854 5853 5851 5851 5847 5845 5842 5841 5838 5837 5835 5833 5831 5829 5827 5824 5820 5818 5815 5812 5809 5806
5807 5806 5809 5812 5818 5824 5828 5832 5838 5835 5841 5849 5841 5839 5851 5858 5857 5857 5856 5854 5852 5853 5851 5848 5844 5842 5839 5837 5837 5836 5832 5829 5828 5826 5824 5823 5821 5818 5814 5812 5808 5805 5801 5796
5801 5804 5806 5808 5814 5821 5822 5821 5824 5832 5833 5839 5838 5846 5849 5850 5852 5852 5851 5849 5849 5847 5845 5841 5839 5835 5833 5831 5828 5827 5825 5823 5821 5819 5817 5816 5813 5810 5807 5804 5799 5796 5791 5787
5790 5798 5799 5807 5809 5814 5819 5820 5823 5820 5822 5831 5836 5845 5844 5844 5843 5842 5841 5840 5839 5838 5836 5834 5832 5830 5827 5824 5822 5820 5818 5817 5815 5813 5809 5807 5804 5801 5798 5795 5792 5788 5783 5777